GFSFLT2_925_spd_336.txt.gz
Wind_Speed
8 6 8 8 8 4 11 13 8 1 4 8 3 9 10 13 16 17 18 19 19 22 22 22 23 22 20 18 18 19 18 16
10 7 5 11 3 6 5 4 5 2 4 6 5 7 13 16 15 16 17 18 18 20 24 22 23 23 21 21 20 18 15 18
12 14 14 7 10 10 9 7 7 7 4 7 3 6 14 16 16 17 19 19 18 19 23 22 23 24 23 22 20 19 20 19
15 16 13 21 15 14 9 8 5 5 6 8 3 9 13 17 15 16 18 19 18 21 24 22 23 24 24 23 22 21 21 19
16 12 7 13 12 13 13 4 8 8 1 8 6 10 13 15 13 15 17 19 18 19 22 24 23 24 24 23 22 21 21 20
14 16 15 17 16 17 15 10 8 8 11 2 5 12 14 13 15 17 18 19 19 18 20 24 24 24 24 22 22 22 22 20
17 16 13 10 18 17 16 17 14 10 7 3 1 9 16 16 16 17 18 20 20 19 17 23 24 24 24 23 21 21 21 20
14 18 17 18 19 20 18 19 16 16 14 11 4 7 17 17 18 19 19 21 21 20 21 24 25 26 25 24 22 22 22 21
14 13 14 20 20 20 20 16 16 14 15 3 5 11 15 19 19 20 21 21 22 22 23 26 26 27 27 26 24 21 20 20
10 7 19 12 15 19 21 16 19 17 16 6 8 8 16 20 20 21 21 22 21 21 25 27 27 26 25 25 25 23 22 21
10 13 14 10 9 12 13 20 20 18 18 16 9 6 7 14 19 21 23 22 25 30 29 28 28 28 26 24 23 23 23 22
9 14 17 12 10 1 9 13 2 12 21 11 11 10 8 18 20 19 23 28 25 28 30 29 28 29 28 26 25 24 24 23
14 14 11 11 3 4 14 3 5 7 5 12 12 11 8 6 15 19 21 24 26 30 32 31 30 29 27 26 25 23 23 24
14 18 22 3 5 12 3 6 4 4 7 7 5 8 8 5 5 14 18 21 26 27 28 31 31 30 27 26 24 25 25 25
12 10 5 2 5 7 4 5 5 5 7 7 7 8 9 8 10 9 16 23 27 29 30 31 32 30 28 26 28 27 27 26
8 11 7 9 8 8 6 6 2 6 8 9 9 9 10 9 8 9 14 21 26 28 29 29 33 30 26 31 30 29 29 28
12 10 2 8 10 5 4 6 5 6 8 9 12 12 11 11 10 10 13 21 25 29 29 31 33 32 29 30 33 31 29 28
10 14 12 3 10 2 6 6 6 9 12 10 11 12 13 11 12 13 13 19 23 25 27 29 31 33 33 33 34 34 31 29
16 17 10 6 8 11 14 13 8 10 12 13 12 12 13 12 16 13 13 18 23 26 27 29 33 33 33 35 35 35 31 30

GFSFLT2_925_spd_339.txt.gz
Wind_Speed
15 18 18 12 10 13 21 19 4 4 19 10 12 8 12 17 20 20 20 20 20 21 23 23 24 23 21 21 17 17 15 14
13 10 11 17 2 6 7 9 4 10 9 4 7 13 13 16 21 22 21 20 19 19 24 24 24 24 23 21 19 18 20 19
15 13 16 14 17 16 15 17 8 9 6 18 16 8 17 16 14 19 20 21 18 19 24 24 24 24 24 23 21 21 20 21
20 18 18 21 18 20 13 10 7 16 4 12 3 11 15 17 14 14 15 17 18 20 25 25 25 25 25 24 23 23 20 22
18 18 17 13 20 21 18 6 6 8 9 16 6 10 12 15 15 14 15 17 18 18 21 24 25 25 26 26 27 24 26 21
16 17 16 18 20 22 19 10 9 24 7 24 10 8 12 16 15 15 14 17 18 19 19 24 24 24 24 25 31 25 24 25
19 21 17 13 16 18 22 14 17 2 7 5 8 13 10 14 15 15 16 18 18 18 18 23 22 23 22 24 28 24 23 21
20 21 19 16 17 16 21 16 15 16 11 7 4 3 15 14 16 16 17 18 19 18 19 23 25 23 23 23 24 25 25 25
16 15 15 19 20 17 17 17 15 17 13 6 1 5 12 16 17 17 17 18 19 19 20 25 26 26 26 23 22 22 22 19
11 16 21 13 15 19 19 19 18 18 11 8 4 5 11 15 19 17 18 19 18 17 24 26 27 27 26 26 26 24 21 21
13 13 15 9 16 15 15 15 21 17 15 12 8 8 4 13 17 21 19 19 22 27 28 26 27 28 27 27 25 24 24 24
9 16 19 13 16 10 7 14 15 18 19 14 13 8 9 15 17 22 21 26 25 28 29 29 29 30 27 27 27 26 26 25
15 14 13 11 13 4 12 2 7 5 5 7 15 9 5 5 13 18 22 27 29 28 29 31 31 31 28 27 27 27 25 26
15 19 22 15 10 11 5 5 5 6 7 8 12 11 8 12 2 15 17 24 27 25 24 31 33 32 30 28 27 27 27 26
17 14 18 10 16 8 7 8 7 7 8 7 8 8 7 9 12 7 19 21 28 28 25 31 35 34 32 29 28 29 28 28
11 13 1 5 8 7 7 6 5 7 7 7 7 7 7 7 11 14 11 16 23 25 27 28 33 33 32 34 34 29 28 29
11 19 8 9 6 5 3 3 4 4 5 7 7 7 8 8 8 11 17 17 23 25 25 29 33 33 32 34 36 32 29 29
9 14 11 8 9 11 3 1 3 3 4 5 7 7 7 9 8 12 14 16 19 23 26 29 31 30 31 35 35 34 32 31
14 18 19 12 4 7 7 8 9 8 6 8 8 7 6 7 8 12 14 18 17 21 22 30 31 33 32 36 36 36 34 32

GFSFLT2_925_spd_342.txt.gz
Wind_Speed
30 12 14 13 15 6 10 12 12 5 2 5 23 12 7 18 19 23 19 11 21 26 28 26 25 27 24 22 20 19 15 14
5 9 17 18 8 3 6 6 7 6 5 5 22 17 9 18 18 20 19 21 19 17 23 25 24 24 26 24 21 19 16 16
13 14 15 9 11 10 17 4 10 1 4 10 25 19 14 16 18 20 20 20 18 15 24 25 25 25 24 23 20 21 16 18
21 20 15 13 18 16 13 13 1 1 1 7 24 26 22 13 17 20 21 19 20 15 25 24 25 26 25 24 23 21 23 24
20 16 16 15 15 17 20 5 4 2 4 7 23 23 18 15 11 14 20 17 20 18 17 22 23 26 26 26 24 22 23 23
16 19 15 14 17 14 18 13 11 3 5 18 25 19 8 14 16 15 11 13 19 17 16 21 23 25 26 25 20 27 25 23
18 21 23 22 20 16 17 20 10 9 16 20 25 22 22 18 16 15 14 16 15 17 16 20 21 23 25 26 32 26 30 26
21 22 22 21 20 13 15 15 17 16 8 16 31 33 13 18 16 15 13 16 14 15 18 20 22 22 24 23 32 28 30 26
17 16 18 20 21 16 19 14 17 14 21 23 32 7 15 17 17 15 14 16 15 17 19 24 25 25 23 27 29 25 27 24
14 18 22 15 16 16 19 19 16 12 9 4 9 8 9 19 20 17 15 15 13 15 23 26 27 26 24 21 28 24 27 24
12 15 14 18 22 16 15 15 17 18 10 1 8 8 17 28 20 20 18 16 17 23 27 28 28 29 26 24 22 22 22 24
11 14 18 13 14 7 13 11 11 12 17 15 33 9 5 8 14 21 20 23 23 26 30 28 27 30 27 27 25 23 23 25
14 12 12 13 11 11 8 1 11 15 18 17 11 12 9 6 9 17 21 25 27 26 29 31 31 32 29 29 28 27 27 26
13 16 19 14 14 5 4 10 8 12 13 10 14 14 15 18 15 12 9 24 29 23 28 34 35 32 29 29 29 29 27 29
14 11 11 13 14 6 11 13 11 11 11 10 12 10 11 10 15 11 21 24 30 26 30 34 37 36 31 29 30 30 31 28
11 16 16 7 16 12 11 11 11 9 9 11 8 10 10 11 12 9 14 17 17 28 29 29 35 37 35 31 31 31 32 30
15 13 8 7 10 10 7 7 9 8 9 10 10 10 10 10 11 12 15 22 22 23 31 33 36 34 33 34 33 31 30 31
6 10 6 8 2 11 7 6 5 4 5 7 8 8 8 8 10 12 15 20 19 6 31 30 33 33 34 35 37 34 30 30
15 15 15 12 10 2 8 5 3 3 3 2 5 7 7 7 8 13 15 17 20 19 23 32 32 32 34 35 39 36 31 32

GFSFLT2_925_spd_345.txt.gz
Wind_Speed
7 8 3 9 8 9 1 6 3 1 5 12 13 18 16 20 22 18 15 20 21 22 28 31 31 32 32 30 26 24 19 20
4 8 22 7 2 5 4 3 5 5 4 4 16 19 12 21 20 26 21 22 23 23 28 29 29 33 32 29 27 26 21 20
9 6 11 8 2 4 7 6 6 5 5 9 16 12 3 7 7 23 23 25 22 20 30 32 31 31 30 29 24 24 18 19
14 13 14 8 9 7 5 6 2 3 5 8 8 7 12 8 9 13 23 23 20 22 30 31 31 30 31 27 27 25 22 21
11 8 6 7 12 8 6 3 6 6 6 7 5 8 10 5 17 11 16 20 22 18 23 27 28 30 29 31 26 24 24 24
9 9 4 5 7 10 8 2 4 3 4 7 4 5 11 21 11 25 23 20 16 18 16 27 29 30 31 30 31 24 26 28
7 7 9 11 10 10 9 8 7 9 9 7 6 18 8 16 12 20 20 19 19 18 16 23 26 28 32 30 34 30 28 27
6 9 12 15 12 11 7 7 9 14 4 4 6 12 8 4 9 18 17 23 20 19 15 23 27 30 31 31 37 35 34 31
5 7 10 11 7 7 9 7 16 8 7 7 4 11 5 21 8 14 16 19 15 19 18 27 29 34 31 34 37 36 32 32
4 3 8 7 10 11 9 9 5 20 19 17 19 20 18 3 11 14 15 11 18 17 23 28 31 32 34 36 34 35 32 29
5 5 8 7 11 13 7 10 9 21 20 14 10 10 20 8 18 9 10 15 22 30 30 29 32 34 37 33 33 31 30 32
4 1 5 8 11 8 9 2 19 13 21 17 9 4 8 10 20 20 10 20 27 31 31 33 32 37 34 31 31 30 33 34
4 4 5 7 8 6 7 2 12 12 11 9 5 1 12 5 12 16 8 20 32 33 31 32 35 35 29 29 29 32 35 33
3 3 7 7 7 4 4 9 10 9 11 13 8 12 15 6 11 9 8 9 17 28 29 33 39 35 29 29 31 35 34 34
8 6 6 12 4 5 12 10 8 8 9 10 10 9 12 13 12 7 6 9 14 10 22 32 39 40 31 31 33 35 34 33
2 8 3 9 11 8 12 10 9 9 9 9 11 9 10 12 8 7 12 4 24 16 8 21 36 38 38 39 39 37 34 30
4 14 9 10 7 7 11 10 9 9 9 9 9 9 8 8 9 6 5 14 13 17 12 31 35 34 33 37 39 36 34 30
2 6 2 7 9 6 9 9 8 8 8 8 9 8 8 6 12 10 5 4 14 28 33 37 34 35 36 39 41 36 31 29
4 8 9 9 8 13 7 8 4 5 7 7 6 5 5 3 7 10 10 14 19 19 5 26 32 35 37 38 37 35 32 30